Stations météo

réclame
Mon MeteoGroup
Tännäs, Suède (2308): Température de l'air & dewpoint: 12.01.2019 13:00:00 - 18.01.2019 13:00:00 (CET)Tännäs, Suède (2308): Vitesse du vent & gusts: 12.01.2019 13:00:00 - 18.01.2019 13:00:00 (CET)Tännäs, Suède (2308): Direction du vent: 12.01.2019 13:00:00 - 18.01.2019 13:00:00 (CET)Tännäs, Suède (2308): reduced air pressure: 12.01.2019 13:00:00 - 18.01.2019 13:00:00 (CET)Tännäs, Suède (2308): visibility: 12.01.2019 13:00:00 - 18.01.2019 13:00:00 (CET)Tännäs, Suède (2308): Quantités de précipitations: 12.01.2019 13:00:00 - 18.01.2019 13:00:00 (CET)
Date & Time tt [°C] td [°C] ff [km/h] ff [knt] fx [km/h] fx [knt] dd ppp [hPa] vv [km] rr [mm]
18.01.2019 13:00:00 - - - - - - - - - -
18.01.2019 12:00:00 -6,4 -11,1 6 3 22 12 WNW 1003,1 46 0,0
18.01.2019 11:00:00 -6,7 -10,9 5 3 17 9 WNW 1002,4 40 0,0
18.01.2019 10:00:00 -7,8 -11,3 4 2 22 12 NW 1002,2 50 0,0
18.01.2019 09:00:00 -7,2 -10,5 4 2 22 12 NNW 1001,2 8 0,2
18.01.2019 08:00:00 -7,7 -11,5 5 3 18 10 WNW 1000,3 49 0,0
18.01.2019 07:00:00 -8,0 -11,5 5 3 24 13 NW 1000,1 12 0,0
18.01.2019 06:00:00 -7,9 -11,4 6 3 24 13 WNW 1000,1 33 0,0
18.01.2019 05:00:00 -7,8 -11,3 6 4 21 12 W 1000,0 5 0,0
18.01.2019 04:00:00 -7,9 -11,2 4 2 15 8 WNW 999,9 4,9 0,1
18.01.2019 03:00:00 -8,4 -12,2 5 3 16 9 NW 999,9 30 0,0
18.01.2019 02:00:00 -7,8 -11,8 2 1 16 9 WNW 999,8 8 0,1
18.01.2019 01:00:00 -7,6 -10,9 4 2 19 11 WNW 999,8 1,1 0,1
18.01.2019 00:00:00 -8,6 -12,7 5 3 23 13 NW 999,2 30 0,0
17.01.2019 23:00:00 -7,9 -11,9 8 5 24 13 WNW 998,9 14 0,0
17.01.2019 22:00:00 -8,2 -12,2 7 4 33 18 WNW 998,5 16 0,0
17.01.2019 21:00:00 -7,7 -11,9 11 6 33 18 WNW 997,3 6 0,0
17.01.2019 20:00:00 -7,4 -11,1 9 5 33 18 WNW 996,9 17 0,0
17.01.2019 19:00:00 -7,3 -10,8 9 5 27 14 WNW 995,8 14 0,0
17.01.2019 18:00:00 -8,1 -12,1 4 2 19 11 NW 995,5 50 0,0
17.01.2019 17:00:00 -8,3 -11,6 6 3 20 11 WNW 994,8 7 0,0
17.01.2019 16:00:00 -9,2 -13,0 4 2 21 11 NW 994,4 28 0,0
17.01.2019 15:00:00 -9,4 -13,3 6 3 21 11 WNW 993,8 7 0,0
17.01.2019 14:00:00 -11,0 -15,2 3 2 19 10 NW 994,0 50 0,0
17.01.2019 13:00:00 -10,6 -14,8 4 2 19 10 W 993,9 24 0,0
17.01.2019 12:00:00 -10,4 -15,0 3 1 14 7 W 993,8 50 0,0
17.01.2019 11:00:00 -12,3 -17,0 0 0 11 6 N 993,7 39 0,0
17.01.2019 10:00:00 -10,4 -14,5 4 2 13 7 WNW 993,3 38 -
17.01.2019 09:00:00 -10,8 -15,2 0 0 14 8 N 992,2 50 0,0
17.01.2019 08:00:00 -11,1 -15,1 3 1 14 8 WSW 991,0 42 0,0
17.01.2019 07:00:00 -10,9 -15,0 3 2 12 6 S 989,4 19 0,1
17.01.2019 06:00:00 -10,6 -14,3 3 2 10 6 SSW 988,3 3,9 0,1
17.01.2019 05:00:00 -10,8 -14,7 3 2 10 6 W 987,5 1,6 0,5
17.01.2019 04:00:00 -10,9 -14,5 3 2 10 5 W 987,1 0,9 0,6
17.01.2019 03:00:00 -11,5 -15,5 3 1 9 5 W 986,5 2,7 0,0
17.01.2019 02:00:00 -11,7 -15,9 2 1 9 5 W 986,3 20 0,0
17.01.2019 01:00:00 -11,7 -15,9 0 0 6 4 N 986,2 21 0,0
17.01.2019 00:00:00 -11,6 -16,3 0 0 7 4 N 986,1 18 0,0
16.01.2019 23:00:00 -11,4 -15,5 0 0 4 2 N 985,6 20 0,0
16.01.2019 22:00:00 -12,2 -16,7 0 0 5 3 N 985,5 48 0,0
16.01.2019 21:00:00 -12,4 -16,7 0 0 8 4 N 985,2 14 0,0
16.01.2019 20:00:00 -12,5 -16,5 3 1 8 4 NNW 985,0 6 0,0
16.01.2019 19:00:00 -12,6 -17,5 2 1 7 4 WNW 984,7 1,5 0,0
16.01.2019 18:00:00 -12,8 -17,0 0 0 7 4 N 985,1 1,7 0,5
16.01.2019 17:00:00 -13,1 -17,6 2 1 11 6 ESE 985,7 0,8 1,4
16.01.2019 16:00:00 -13,3 -17,1 2 1 13 7 E 986,4 0,5 0,8
16.01.2019 15:00:00 -12,3 -16,0 5 3 22 12 ESE 986,4 0,7 0,2
16.01.2019 14:00:00 -11,8 -14,9 7 4 22 12 ESE 987,3 2,4 0,3
16.01.2019 13:00:00 -11,4 -14,4 7 4 22 12 E 988,8 0,7 0,5
16.01.2019 12:00:00 -13,6 -17,2 4 2 13 7 ESE 990,6 1,5 0,3
16.01.2019 11:00:00 -12,6 -15,0 5 3 13 7 E 991,3 2,6 0,1
16.01.2019 10:00:00 -14,8 -18,4 2 1 5 3 WNW 992,9 50 0,0
16.01.2019 09:00:00 -14,4 -17,9 0 0 5 3 N 993,6 50 0,0
16.01.2019 08:00:00 -15,5 -20,1 0 0 4 2 N 994,5 50 0,0
16.01.2019 07:00:00 -15,5 -19,1 0 0 5 3 N 995,3 50 0,0
16.01.2019 06:00:00 -16,2 -19,6 0 0 5 3 N 996,2 50 0,0
16.01.2019 05:00:00 -17,5 -22,0 0 0 5 3 N 997,1 50 0,0
16.01.2019 04:00:00 -17,3 -21,8 0 0 4 2 N 997,4 50 0,0
16.01.2019 03:00:00 -17,2 -22,0 0 0 4 2 N 997,8 50 0,0
16.01.2019 02:00:00 -16,3 -19,5 0 0 4 2 N 997,5 50 0,0
16.01.2019 01:00:00 -15,9 -19,8 0 0 5 3 N 997,6 50 0,0
16.01.2019 00:00:00 -15,4 -18,8 3 1 5 3 NNW 997,5 50 0,0
15.01.2019 23:00:00 -15,0 -18,8 2 1 6 3 ENE 997,3 50 0,0
15.01.2019 22:00:00 -14,4 -18,0 0 0 9 5 N 996,8 50 0,0
15.01.2019 21:00:00 -12,7 -15,6 2 1 9 5 NNW 996,0 50 0,0
15.01.2019 20:00:00 -13,5 -17,1 2 1 9 5 NNW 995,5 50 0,0
15.01.2019 19:00:00 -12,7 -16,5 0 0 9 5 N 994,4 50 0,0
15.01.2019 18:00:00 -11,5 -14,6 0 0 4 2 N 993,9 50 0,0
15.01.2019 17:00:00 -11,6 -14,8 0 0 4 2 N 993,7 50 -
15.01.2019 16:00:00 -11,0 -14,2 2 1 4 2 NE 993,4 13 0,1
15.01.2019 15:00:00 -8,7 -12,7 0 0 6 3 N 992,7 4,3 0,1
15.01.2019 14:00:00 -8,3 -12,4 0 0 8 4 N 992,8 2,1 0,2
15.01.2019 13:00:00 -8,1 -12,3 3 2 9 5 E 993,2 4,7 0,0
15.01.2019 12:00:00 -8,9 -13,4 0 0 9 5 N 993,8 48 0,0
15.01.2019 11:00:00 -9,0 -12,6 4 2 9 5 NW 994,3 50 0,0
15.01.2019 10:00:00 -9,6 -13,4 0 0 12 7 N 994,7 49 0,0
15.01.2019 09:00:00 -10,2 -13,3 0 0 13 7 N 995,4 50 0,0
15.01.2019 08:00:00 -10,1 -13,5 3 1 18 10 SE 996,0 50 0,0
15.01.2019 07:00:00 -9,7 -13,1 4 2 24 13 N 996,3 50 0,0
15.01.2019 06:00:00 -8,3 -12,3 9 5 24 13 WNW 996,4 50 0,0
15.01.2019 05:00:00 -9,2 -12,6 3 1 21 11 WNW 996,8 50 -
15.01.2019 04:00:00 -8,1 -12,3 5 3 21 11 WNW 996,7 30 0,0
15.01.2019 03:00:00 -7,8 -11,8 5 3 26 14 WNW 996,7 47 0,1
15.01.2019 02:00:00 -7,2 -11,2 7 4 26 14 WNW 996,5 50 0,0
15.01.2019 01:00:00 -6,7 -10,7 9 5 28 15 WNW 996,1 19 -
15.01.2019 00:00:00 -6,4 -10,6 8 4 28 15 W 995,9 22 0,1
14.01.2019 23:00:00 -6,4 -9,9 8 4 24 13 WNW 995,3 4,2 0,0
14.01.2019 22:00:00 -6,3 -9,8 6 3 18 10 WNW 994,8 8 0,0
14.01.2019 21:00:00 -6,7 -10,6 6 4 21 11 WNW 994,3 27 0,0
14.01.2019 20:00:00 -7,2 -11,4 5 3 21 11 WNW 993,7 49 0,0
14.01.2019 19:00:00 -7,4 -11,6 4 2 20 11 WNW 993,2 40 0,0
14.01.2019 18:00:00 -7,6 -12,3 5 3 25 13 WNW 992,5 50 0,0
14.01.2019 17:00:00 -7,3 -11,8 6 3 26 14 W 991,0 50 0,0
14.01.2019 16:00:00 -6,3 -10,3 6 3 26 14 W 989,3 50 0,6
14.01.2019 15:00:00 -6,2 -9,4 4 2 24 13 W 988,0 2,5 0,1
14.01.2019 14:00:00 -6,6 -10,6 5 3 25 13 WNW 987,2 23 0,0
14.01.2019 13:00:00 -6,2 -10,3 6 3 25 13 W 986,1 47 0,0
14.01.2019 12:00:00 -6,2 -10,1 7 4 33 18 W 985,1 41 0,5
14.01.2019 11:00:00 -5,2 -7,6 8 4 33 18 W 983,3 1,1 1,3
14.01.2019 10:00:00 -5,7 -7,7 6 3 22 12 W 981,9 0,1 1,9
14.01.2019 09:00:00 -6,5 -9,5 4 2 29 16 SW 980,6 6 0,0
14.01.2019 08:00:00 -6,8 -9,5 4 2 36 19 WSW 980,3 4,4 0,0
14.01.2019 07:00:00 -6,7 -9,1 8 4 37 20 W 978,9 11 0,7
14.01.2019 06:00:00 -7,9 -9,7 14 8 36 19 WNW 978,6 0,2 1,0
14.01.2019 05:00:00 -8,2 -11,8 11 6 31 17 W 979,2 6 0,0
14.01.2019 04:00:00 -8,7 -12,2 11 6 31 17 WNW 981,4 46 0,0
14.01.2019 03:00:00 -8,2 -11,0 8 4 31 17 WNW 981,9 3,6 0,4
14.01.2019 02:00:00 -7,7 -10,2 5 3 26 14 WNW 981,5 6 0,1
14.01.2019 01:00:00 -7,8 -10,3 8 5 26 14 WNW 981,0 3,8 0,4
14.01.2019 00:00:00 -7,4 -9,3 7 4 36 20 WNW 980,6 0,6 1,4
13.01.2019 23:00:00 -7,0 -8,6 11 6 39 21 WNW 979,6 0,2 -
13.01.2019 22:00:00 -7,1 -9,6 13 7 39 21 WNW 979,3 1,1 0,2
13.01.2019 21:00:00 -7,6 -10,4 11 6 31 17 WNW 979,7 1,1 0,3
13.01.2019 20:00:00 -7,8 -12,7 5 3 27 15 WNW 980,0 7 0,0
13.01.2019 19:00:00 -7,7 -12,4 9 5 35 19 WNW 980,1 14 0,0
13.01.2019 18:00:00 -7,4 -12,3 8 4 35 19 WNW 979,9 50 0,1
13.01.2019 17:00:00 -6,5 -10,9 13 7 37 20 WNW 979,2 13 0,0
13.01.2019 16:00:00 -5,1 -9,9 11 6 40 22 WNW 977,9 37 0,0
13.01.2019 15:00:00 -4,0 -8,5 11 6 40 22 WNW 976,7 17 0,0
13.01.2019 14:00:00 -2,8 -7,1 14 8 49 26 WNW 975,9 21 0,0
13.01.2019 13:00:00 -3,0 -7,3 11 6 49 26 WNW 975,9 33 0,0
13.01.2019 12:00:00 -3,3 -6,7 7 4 22 12 WNW 975,9 50 0,0
13.01.2019 11:00:00 -5,5 -8,9 2 1 8 5 SW 976,5 50 0,0
13.01.2019 10:00:00 -5,8 -9,0 3 1 8 4 ESE 977,3 46 0,0
13.01.2019 09:00:00 -6,1 -9,6 0 0 8 4 N 978,2 50 0,1
13.01.2019 08:00:00 -5,7 -9,3 2 1 10 5 SSE 979,2 2,6 0,2
13.01.2019 07:00:00 -6,4 -9,8 4 2 10 6 SE 980,9 5 0,1
13.01.2019 06:00:00 -6,4 -9,8 3 2 10 6 SE 982,6 2,5 0,2
13.01.2019 05:00:00 - - - - 11 6 - - - -
13.01.2019 04:00:00 -7,3 -11,1 3 2 11 6 SSE 986,4 50 0,0
13.01.2019 03:00:00 -7,2 -10,7 4 2 13 7 SSE 988,0 50 0,0
13.01.2019 02:00:00 -6,4 -9,9 2 1 13 7 ESE 989,4 50 0,0
13.01.2019 01:00:00 -4,9 -8,5 4 2 10 6 W 990,5 50 0,0
13.01.2019 00:00:00 -4,5 -9,0 3 1 9 5 WNW 991,8 50 0,0
12.01.2019 23:00:00 -4,9 -8,6 2 1 9 5 WNW 992,8 50 0,0
12.01.2019 22:00:00 -5,5 -9,1 0 0 7 4 N 993,4 50 0,0
12.01.2019 21:00:00 -4,4 -8,5 0 0 7 4 N 994,5 50 0,0
12.01.2019 20:00:00 -4,3 -8,2 2 1 5 3 NW 995,1 50 0,0
12.01.2019 19:00:00 -4,1 -8,2 0 0 7 4 N 995,4 50 0,0
12.01.2019 18:00:00 -4,1 -7,9 3 1 10 6 NW 995,6 50 0,0
12.01.2019 17:00:00 -3,8 -7,8 2 1 10 6 NW 996,0 50 0,0
12.01.2019 16:00:00 -3,3 -7,1 4 2 10 5 NW 996,1 50 0,0
12.01.2019 15:00:00 -3,0 -7,2 3 1 10 5 NNW 996,2 50 0,0
12.01.2019 14:00:00 -2,6 -7,3 2 1 10 6 W 996,8 46 0,0
12.01.2019 13:00:00 -2,6 -7,1 3 1 14 7 WSW 997,4 50 0,0

tt = Température de l'air
td = dewpoint
ff = Vitesse du vent
fx = gusts
dd = Direction du vent
ppp = reduced air pressure
vv = visibility
rr = Quantités de précipitations

stations d'obs. à proximité